TimeCDT,TemperatureF,Dew PointF,Humidity,Sea Level PressureIn,VisibilityMPH,Wind Direction,Wind SpeedMPH,Gust SpeedMPH,PrecipitationIn,Events,Conditions,WindDirDegrees,DateUTC
12:12 AM,32.0,26.6,80,30.10,10.0,Calm,Calm,-,N/A,,Clear,0,2013-04-27 05:12:00
12:31 AM,32.0,26.6,80,30.10,10.0,WNW,3.5,-,N/A,,Clear,290,2013-04-27 05:31:00
12:51 AM,33.8,26.6,75,30.10,10.0,Calm,Calm,-,N/A,,Clear,0,2013-04-27 05:51:00
1:12 AM,33.8,26.6,75,30.09,10.0,Calm,Calm,-,N/A,,Clear,0,2013-04-27 06:12:00
1:31 AM,30.2,26.6,86,30.09,10.0,NW,3.5,-,N/A,,Clear,310,2013-04-27 06:31:00
1:51 AM,30.2,24.8,80,30.10,10.0,SSE,6.9,-,N/A,,Clear,160,2013-04-27 06:51:00
2:12 AM,30.2,24.8,80,30.10,10.0,West,5.8,-,N/A,,Clear,270,2013-04-27 07:12:00
2:31 AM,30.2,26.6,86,30.09,10.0,WNW,3.5,-,N/A,,Clear,290,2013-04-27 07:31:00
2:51 AM,30.2,24.8,80,30.09,10.0,Calm,Calm,-,N/A,,Clear,0,2013-04-27 07:51:00
3:11 AM,28.4,24.8,86,30.09,10.0,Calm,Calm,-,N/A,,Clear,0,2013-04-27 08:11:00
3:31 AM,28.4,24.8,86,30.09,10.0,Calm,Calm,-,N/A,,Clear,0,2013-04-27 08:31:00
3:51 AM,28.4,24.8,86,30.08,10.0,Calm,Calm,-,N/A,,Clear,0,2013-04-27 08:51:00
4:11 AM,28.4,24.8,86,30.08,10.0,Calm,Calm,-,N/A,,Clear,0,2013-04-27 09:11:00
4:31 AM,28.4,23.0,80,30.08,10.0,West,3.5,-,N/A,,Clear,270,2013-04-27 09:31:00
4:52 AM,30.2,24.8,80,30.08,10.0,NW,3.5,-,N/A,,Clear,310,2013-04-27 09:52:00
5:11 AM,32.0,26.6,80,30.08,10.0,NW,3.5,-,N/A,,Clear,320,2013-04-27 10:11:00
5:31 AM,30.2,24.8,80,30.07,10.0,Calm,Calm,-,N/A,,Clear,0,2013-04-27 10:31:00
5:52 AM,28.4,24.8,86,30.07,10.0,Calm,Calm,-,N/A,,Clear,0,2013-04-27 10:52:00
6:11 AM,28.4,24.8,86,30.07,10.0,Calm,Calm,-,N/A,,Clear,0,2013-04-27 11:11:00
6:31 AM,28.4,24.8,86,30.07,10.0,Calm,Calm,-,N/A,,Clear,0,2013-04-27 11:31:00
6:52 AM,30.2,26.6,86,30.07,10.0,Calm,Calm,-,N/A,,Clear,0,2013-04-27 11:52:00
7:11 AM,32.0,26.6,80,30.08,10.0,Calm,Calm,-,N/A,,Clear,0,2013-04-27 12:11:00
7:31 AM,37.4,28.4,70,30.08,10.0,Calm,Calm,-,N/A,,Clear,0,2013-04-27 12:31:00
7:52 AM,37.4,28.4,70,30.09,10.0,Calm,Calm,-,N/A,,Clear,0,2013-04-27 12:52:00
8:11 AM,39.2,30.2,70,30.09,10.0,Calm,Calm,-,N/A,,Clear,0,2013-04-27 13:11:00
8:31 AM,41.0,30.2,65,30.08,10.0,Calm,Calm,-,N/A,,Clear,0,2013-04-27 13:31:00
8:52 AM,44.6,32.0,61,30.08,10.0,Calm,Calm,-,N/A,,Clear,0,2013-04-27 13:52:00
9:11 AM,46.4,33.8,62,30.08,10.0,Calm,Calm,-,N/A,,Clear,0,2013-04-27 14:11:00
9:32 AM,48.2,33.8,58,30.07,10.0,Calm,Calm,-,N/A,,Clear,0,2013-04-27 14:32:00
9:51 AM,51.8,33.8,50,30.07,10.0,Calm,Calm,-,N/A,,Clear,0,2013-04-27 14:51:00
10:11 AM,53.6,33.8,47,30.06,10.0,Calm,Calm,-,N/A,,Clear,0,2013-04-27 15:11:00
10:32 AM,55.4,33.8,44,30.06,10.0,SSW,6.9,-,N/A,,Clear,200,2013-04-27 15:32:00
10:51 AM,55.4,35.6,47,30.07,10.0,SSE,4.6,-,N/A,,Clear,160,2013-04-27 15:51:00
11:11 AM,55.4,35.6,47,30.07,10.0,SSE,4.6,-,N/A,,Clear,160,2013-04-27 16:11:00
11:32 AM,55.4,33.8,44,30.06,10.0,South,4.6,-,N/A,,Clear,170,2013-04-27 16:32:00
11:51 AM,55.4,33.8,44,30.06,10.0,South,4.6,-,N/A,,Clear,180,2013-04-27 16:51:00
12:11 PM,57.2,33.8,41,30.05,10.0,South,9.2,-,N/A,,Clear,170,2013-04-27 17:11:00
12:32 PM,57.2,33.8,41,30.04,10.0,SSE,9.2,-,N/A,,Clear,160,2013-04-27 17:32:00
12:51 PM,55.4,35.6,47,30.03,10.0,SE,4.6,-,N/A,,Clear,140,2013-04-27 17:51:00
1:11 PM,57.2,33.8,41,30.03,10.0,South,8.1,-,N/A,,Clear,190,2013-04-27 18:11:00
1:32 PM,59.0,33.8,39,30.02,10.0,South,9.2,-,N/A,,Clear,170,2013-04-27 18:32:00
1:51 PM,59.0,33.8,39,30.01,10.0,South,10.4,-,N/A,,Clear,190,2013-04-27 18:51:00
2:11 PM,60.8,33.8,36,30.00,10.0,South,8.1,-,N/A,,Clear,170,2013-04-27 19:11:00
2:32 PM,60.8,33.8,36,29.99,10.0,South,6.9,10.4,N/A,,Clear,180,2013-04-27 19:32:00
2:51 PM,60.8,35.6,39,29.98,10.0,South,5.8,-,N/A,,Clear,170,2013-04-27 19:51:00
3:11 PM,60.8,35.6,39,29.98,10.0,SSE,4.6,-,N/A,,Clear,160,2013-04-27 20:11:00
3:31 PM,60.8,35.6,39,29.97,10.0,SSE,4.6,-,N/A,,Clear,150,2013-04-27 20:31:00
3:51 PM,60.8,35.6,39,29.96,10.0,SSE,3.5,-,N/A,,Clear,160,2013-04-27 20:51:00
4:11 PM,60.8,35.6,39,29.95,10.0,SSE,4.6,-,N/A,,Clear,160,2013-04-27 21:11:00
4:31 PM,60.8,35.6,39,29.95,10.0,SSE,3.5,-,N/A,,Clear,160,2013-04-27 21:31:00
4:51 PM,60.8,35.6,39,29.94,10.0,SSE,4.6,-,N/A,,Clear,150,2013-04-27 21:51:00
5:11 PM,60.8,35.6,39,29.93,10.0,Calm,Calm,-,N/A,,Clear,0,2013-04-27 22:11:00
5:31 PM,62.6,35.6,37,29.93,10.0,Calm,Calm,-,N/A,,Clear,0,2013-04-27 22:31:00
5:51 PM,60.8,35.6,39,29.92,10.0,Calm,Calm,-,N/A,,Clear,0,2013-04-27 22:51:00
6:11 PM,60.8,33.8,36,29.92,10.0,SSE,3.5,-,N/A,,Clear,150,2013-04-27 23:11:00
6:31 PM,55.4,35.6,47,29.91,10.0,SE,3.5,-,N/A,,Clear,140,2013-04-27 23:31:00
6:51 PM,53.6,33.8,47,29.90,10.0,East,4.6,-,N/A,,Clear,90,2013-04-27 23:51:00
7:11 PM,53.6,33.8,47,29.90,10.0,Calm,Calm,-,N/A,,Clear,0,2013-04-28 00:11:00
7:31 PM,50.0,33.8,54,29.90,10.0,Calm,Calm,-,N/A,,Clear,0,2013-04-28 00:31:00
7:51 PM,50.0,33.8,54,29.90,10.0,Calm,Calm,-,N/A,,Clear,0,2013-04-28 00:51:00
8:11 PM,46.4,32.0,57,29.90,10.0,Calm,Calm,-,N/A,,Clear,0,2013-04-28 01:11:00
8:31 PM,46.4,32.0,57,29.89,10.0,Calm,Calm,-,N/A,,Clear,0,2013-04-28 01:31:00
8:51 PM,42.8,30.2,61,29.89,10.0,Calm,Calm,-,N/A,,Clear,0,2013-04-28 01:51:00
9:12 PM,42.8,30.2,61,29.89,10.0,Calm,Calm,-,N/A,,Clear,0,2013-04-28 02:12:00
9:31 PM,39.2,30.2,70,29.88,10.0,NNE,3.5,-,N/A,,Clear,20,2013-04-28 02:31:00
9:51 PM,37.4,28.4,70,29.88,10.0,Calm,Calm,-,N/A,,Clear,0,2013-04-28 02:51:00
10:12 PM,37.4,28.4,70,29.88,10.0,Calm,Calm,-,N/A,,Clear,0,2013-04-28 03:12:00
10:31 PM,37.4,28.4,70,29.88,10.0,Calm,Calm,-,N/A,,Clear,0,2013-04-28 03:31:00
10:51 PM,35.6,28.4,75,29.88,10.0,Calm,Calm,-,N/A,,Clear,0,2013-04-28 03:51:00
11:12 PM,35.6,28.4,75,29.87,10.0,Calm,Calm,-,N/A,,Clear,0,2013-04-28 04:12:00
11:31 PM,35.6,28.4,75,29.86,10.0,Calm,Calm,-,N/A,,Clear,0,2013-04-28 04:31:00
11:51 PM,33.8,28.4,81,29.85,10.0,Calm,Calm,-,N/A,,Clear,0,2013-04-28 04:51:00